Weather History for KBPC - June, 2013

Change the Weather History Date:

Thursday, June 27, 2013

  Actual Average (KBGD) Record (KBGD)
Temperature  
Mean Temperature 88 °F 80 °F  
Max Temperature 107 °F 92 °F 108 °F (1998)
Min Temperature 69 °F 67 °F 54 °F (1969)
Degree Days  
Heating Degree Days 0 0  
Month to date heating degree days 0  
Since 1 June heating degree days 0  
Since 1 July heating degree days 3763  
Cooling Degree Days 23 15  
Month to date cooling degree days 313  
Year to date cooling degree days 510  
Since 1 June cooling degree days 313  
Growing Degree Days 38 (Base 50)    
Moisture  
Dew Point 57 °F    
Average Humidity 38    
Maximum Humidity 78    
Minimum Humidity 13    
Precipitation  
Precipitation 0.00 in 0.09 in 1.23 in (2000)
Month to date precipitation 2.92  
Year to date precipitation 9.97  
Snow  
Snow 0.00 in - 0.00 in (2013)
Month to date snowfall  
Since 1 June snowfall  
Since 1 July snowfall  
Snow Depth -    
Sea Level Pressure  
Sea Level Pressure 29.99 in    
Wind  
Wind Speed 10 mph (South)    
Max Wind Speed 29 mph    
Max Gust Speed 39 mph    
Visibility 10 miles    
Events Rain    
T = Trace of Precipitation, MM = Missing Value Source: NWS Daily Summary

Daily Weather History Graph

Daily Weather History Graph

Search for Another Location

Airport or City:

Trip Planner

Search our weather history database for the weather conditions in past years. The results will help you decide how hot, cold, wet, or windy it might be!

Date:

Astronomy

Jun. 27, 2013 Rise Set
Actual Time 6:29 AM CDT 9:04 PM CDT
Civil Twilight 5:59 AM CDT 9:34 PM CDT
Nautical Twilight 5:22 AM CDT 10:12 PM CDT
Astronomical Twilight 4:40 AM CDT 10:53 PM CDT
Moon No Moon Rise 11:23 AM CDT (6/27)
Length of Visible Light 15h 35m
Length of Day
14h 34m
Waning Gibbous, 76% of the Moon is Illuminated
Jun 27
Waning Gibbous
Jun 29
Last Quarter
Jul 8
New
Jul 15
First Quarter
Jul 22
Full

Hourly Weather History & Observations

Time (CDT) Temp. Heat Index Dew Point Humidity Pressure Visibility Wind Dir Wind Speed Gust Speed Precip Events Conditions
12:15 AM 84.2 °F 85.0 °F 62.6 °F 48% 29.96 in 10.0 mi SE 11.5 mph - N/A   Clear
12:35 AM 84.2 °F 85.0 °F 62.6 °F 48% 29.96 in 10.0 mi SE 9.2 mph - N/A   Clear
12:55 AM 84.2 °F 85.0 °F 62.6 °F 48% 29.96 in 10.0 mi SSE 12.7 mph 19.6 mph N/A   Clear
1:15 AM 86.0 °F 86.1 °F 60.8 °F 43% 29.96 in 10.0 mi SSE 15.0 mph 21.9 mph N/A   Clear
1:35 AM 86.0 °F 86.1 °F 60.8 °F 43% 29.95 in 10.0 mi SSE 15.0 mph - N/A   Clear
1:55 AM 82.4 °F 82.9 °F 60.8 °F 48% 29.95 in 10.0 mi SSE 12.7 mph - N/A   Clear
2:15 AM 82.4 °F 82.9 °F 60.8 °F 48% 29.95 in 10.0 mi SSE 15.0 mph - N/A   Clear
2:35 AM 82.4 °F 82.9 °F 60.8 °F 48% 29.95 in 10.0 mi SSE 12.7 mph 18.4 mph N/A   Clear
2:55 AM 82.4 °F 82.9 °F 60.8 °F 48% 29.96 in 10.0 mi Calm Calm - N/A   Clear
3:15 AM 78.8 °F - 60.8 °F 54% 29.97 in 10.0 mi NE 6.9 mph - N/A   Clear
3:35 AM 80.6 °F 81.5 °F 60.8 °F 51% 29.97 in 10.0 mi ESE 5.8 mph - N/A   Clear
3:55 AM 77.0 °F - 60.8 °F 57% 29.98 in 10.0 mi ENE 8.1 mph - N/A   Clear
4:15 AM 75.2 °F - 60.8 °F 61% 29.98 in 10.0 mi NE 5.8 mph - N/A   Clear
4:35 AM 73.4 °F - 62.6 °F 69% 29.98 in 10.0 mi East 5.8 mph - N/A   Clear
4:55 AM 73.4 °F - 62.6 °F 69% 29.99 in 10.0 mi East 5.8 mph - N/A   Clear
5:15 AM 73.4 °F - 62.6 °F 69% 29.99 in 10.0 mi East 4.6 mph - N/A   Clear
5:35 AM 71.6 °F - 62.6 °F 73% 30.00 in 10.0 mi East 4.6 mph - N/A   Clear
5:55 AM 71.6 °F - 62.6 °F 73% 30.00 in 10.0 mi East 4.6 mph - N/A   Clear
6:15 AM 69.8 °F - 62.6 °F 78% 30.00 in 10.0 mi ENE 4.6 mph - N/A   Clear
6:35 AM 71.6 °F - 62.6 °F 73% 30.00 in 10.0 mi ESE 3.5 mph - N/A   Clear
6:55 AM 71.6 °F - 62.6 °F 73% 30.01 in 10.0 mi Calm Calm - N/A   Clear
7:15 AM 73.4 °F - 62.6 °F 69% 30.01 in 10.0 mi Calm Calm - N/A   Clear
7:35 AM 73.4 °F - 64.4 °F 73% 30.01 in 10.0 mi Calm Calm - N/A   Clear
7:55 AM 77.0 °F - 64.4 °F 65% 30.03 in 10.0 mi Calm Calm - N/A   Clear
8:15 AM 80.6 °F 81.8 °F 62.6 °F 54% 30.03 in 10.0 mi South 5.8 mph - N/A   Clear
8:35 AM 82.4 °F 83.4 °F 62.6 °F 51% 30.03 in 10.0 mi SW 5.8 mph - N/A   Clear
8:55 AM 84.2 °F 85.0 °F 62.6 °F 48% 30.03 in 10.0 mi SSW 6.9 mph - N/A   Clear
9:15 AM 86.0 °F 86.6 °F 62.6 °F 45% 30.03 in 10.0 mi SSW 10.4 mph - N/A   Clear
9:35 AM 87.8 °F 88.5 °F 62.6 °F 43% 30.04 in 10.0 mi SSW 9.2 mph - N/A   Clear
9:55 AM 87.8 °F 88.5 °F 62.6 °F 43% 30.03 in 10.0 mi SSW 11.5 mph - N/A   Clear
10:15 AM 89.6 °F 90.1 °F 62.6 °F 40% 30.03 in 10.0 mi SW 11.5 mph - N/A   Clear
10:35 AM 91.4 °F 91.4 °F 60.8 °F 36% 30.03 in 10.0 mi SSW 9.2 mph 18.4 mph N/A   Clear
10:55 AM 91.4 °F 90.7 °F 59.0 °F 34% 30.02 in 10.0 mi SSW 11.5 mph 17.3 mph N/A   Clear
11:15 AM 95.0 °F 94.4 °F 59.0 °F 30% 30.02 in 10.0 mi SSW 11.5 mph - N/A   Clear
11:35 AM 95.0 °F 94.4 °F 59.0 °F 30% 30.02 in 10.0 mi SW 12.7 mph 16.1 mph N/A   Clear
11:55 AM 96.8 °F 96.2 °F 59.0 °F 28% 30.02 in 10.0 mi SSW 10.4 mph - N/A   Clear
12:15 PM 98.6 °F 98.5 °F 59.0 °F 27% 30.02 in 10.0 mi SW 11.5 mph 17.3 mph N/A   Clear
12:35 PM 100.4 °F 99.7 °F 57.2 °F 24% 30.02 in 10.0 mi SW 11.5 mph 17.3 mph N/A   Clear
12:55 PM 100.4 °F 99.7 °F 57.2 °F 24% 30.02 in 10.0 mi SSW 9.2 mph 19.6 mph N/A   Clear
1:15 PM 104.0 °F 102.9 °F 55.4 °F 20% 30.01 in 10.0 mi SSW 8.1 mph - N/A   Clear
1:35 PM 104.0 °F 102.3 °F 53.6 °F 19% 30.01 in 10.0 mi SSW 9.2 mph 23.0 mph N/A   Clear
1:55 PM 104.0 °F 102.3 °F 53.6 °F 19% 30.00 in 10.0 mi SSW 15.0 mph 19.6 mph N/A   Clear
2:15 PM 104.0 °F 102.3 °F 53.6 °F 19% 30.00 in 10.0 mi SW 9.2 mph 19.6 mph N/A   Clear
2:35 PM 105.8 °F - 50.0 °F 15% 30.00 in 10.0 mi South 10.4 mph 18.4 mph N/A   Clear
2:55 PM 107.6 °F - 50.0 °F 15% 29.99 in 10.0 mi SSW 3.5 mph 19.6 mph N/A   Clear
3:15 PM 105.8 °F - 50.0 °F 15% 29.99 in 10.0 mi SSW 10.4 mph 19.6 mph N/A   Clear
3:35 PM 107.6 °F - 48.2 °F 14% 29.98 in 10.0 mi SSW 6.9 mph 21.9 mph N/A   Clear
3:55 PM 105.8 °F - 48.2 °F 14% 29.98 in 10.0 mi SW 11.5 mph 16.1 mph N/A   Clear
4:15 PM 107.6 °F - 50.0 °F 15% 29.97 in 10.0 mi SW 12.7 mph 18.4 mph N/A   Scattered Clouds
4:35 PM 107.6 °F - 48.2 °F 14% 29.96 in 10.0 mi SW 12.7 mph 18.4 mph N/A   Scattered Clouds
4:55 PM 107.6 °F - 50.0 °F 15% 29.95 in 10.0 mi SW 17.3 mph 23.0 mph N/A   Clear
5:15 PM 107.6 °F - 46.4 °F 13% 29.94 in 10.0 mi South 6.9 mph 20.7 mph N/A   Clear
5:35 PM 107.6 °F - 46.4 °F 13% 29.93 in 10.0 mi SSW 10.4 mph 20.7 mph N/A   Clear
5:55 PM 107.6 °F - 46.4 °F 13% 29.91 in 10.0 mi South 19.6 mph - N/A   Clear
6:15 PM 105.8 °F - 46.4 °F 14% 29.92 in 10.0 mi SSW 12.7 mph 34.5 mph N/A   Clear
6:35 PM 105.8 °F - 46.4 °F 14% 29.92 in 10.0 mi SSW 17.3 mph 23.0 mph N/A   Clear
6:55 PM 105.8 °F - 46.4 °F 14% 29.91 in 10.0 mi SSW 17.3 mph 20.7 mph N/A   Clear
7:15 PM 104.0 °F - 46.4 °F 14% 29.92 in 10.0 mi South 15.0 mph 26.5 mph N/A   Clear
7:35 PM 104.0 °F - 46.4 °F 14% 29.91 in 10.0 mi South 17.3 mph 24.2 mph N/A   Clear
7:55 PM 100.4 °F - 46.4 °F 16% 29.91 in 10.0 mi South 16.1 mph 21.9 mph N/A   Clear
8:15 PM 100.4 °F - 50.0 °F 18% 29.93 in 10.0 mi South 16.1 mph - N/A   Clear
8:35 PM 98.6 °F - 51.8 °F 21% 29.97 in 10.0 mi ESE 8.1 mph 16.1 mph N/A   Clear
8:55 PM 87.8 °F - 51.8 °F 29% 30.03 in 10.0 mi ENE 23.0 mph 26.5 mph N/A   Clear
9:15 PM 84.2 °F 82.8 °F 53.6 °F 35% 30.08 in 10.0 mi NW 9.2 mph 23.0 mph N/A Rain Light Rain
9:35 PM 82.4 °F 81.4 °F 53.6 °F 37% 30.04 in 10.0 mi South 18.4 mph 26.5 mph N/A Rain Light Rain
9:55 PM 80.6 °F 80.5 °F 55.4 °F 42% 30.03 in 10.0 mi SSW 19.6 mph 32.2 mph N/A Rain Light Rain
10:15 PM 82.4 °F 81.7 °F 55.4 °F 39% 29.98 in 10.0 mi SSW 28.8 mph 39.1 mph N/A Rain Light Rain
10:35 PM 84.2 °F - 51.8 °F 33% 30.05 in 10.0 mi NNE 4.6 mph 9.2 mph N/A   Clear
10:55 PM 86.0 °F 84.2 °F 53.6 °F 33% 30.05 in 10.0 mi ENE 3.5 mph - N/A   Clear
11:15 PM 86.0 °F 84.2 °F 53.6 °F 33% 30.05 in 10.0 mi Calm Calm - N/A   Clear
11:35 PM 84.2 °F 83.0 °F 55.4 °F 37% 30.05 in 10.0 mi ENE 5.8 mph - N/A   Clear
11:55 PM 82.4 °F 82.5 °F 59.0 °F 45% 30.06 in 10.0 mi North 5.8 mph - N/A   Clear